Volver al catálogo

COSMOS 2251 DEB

ActivoLEO
NORAD 37132·DEBRIS·🇷🇺 Russia

Lanzado Jun 16, 1993 desde Plesetsk Cosmodrome

Loading…

Próximos Pases (próximas 24 horas)

TLE

ActualizadoSource: Space-Track

Época: Sep 14, 2026, 02:18 UTC

1 37132U 93036BHE 26257.09598281  .00006005  00000-0  76194-3 0  9992
2 37132  74.0007  50.6029 0039451 138.6521 221.7655 14.81364220664898

Sigue COSMOS 2251 DEB en tiempo real con AllMySat

Download on the App Store